User: anonymous   Login
Location: ???? ?????
(30.0052°N, 31.2891°E)
Time: 00:00:33
(UTC+00:00)
Language:

FENGYUN 1C DEB - Orbit

View from above orbital plane
View from above orbital plane
View from above satellite
View from above satellite

Ground track
Ground track

The orbit data is extracted from the following two-line orbital elements,

1 31232U 99025BLN 22265.49374580  .00004595  00000-0  19044-2 0  9996
2 31232  98.9995   5.5779 0041630 182.8181 177.2770 14.26591299798988
Epoch (UTC): 22 September 2022 11:50:59
Eccentricity: 0.0041630
inclination: 98.9995°
perigee height: 773 km
apogee height: 833 km
right ascension of ascending node: 5.5779°
argument of perigee: 182.8181°
revolutions per day: 14.26591299
mean anomaly at epoch: 177.2770°
orbit number at epoch: 79898

The dashed part of the orbit path shows where the satellite is in the earth's shadow,  

DLR